Find Local Weather

World > North America > United States > Arizona

Cave Creek, Arizona Regional Weather

Lat: 33.83N, Lon: 111.97W
Wx Zone: AZZ543
Feedback
Expires:201808161600;;154018
ASUS45 KPSR 161510
RWRAZ 

ARIZONA HOURLY REGIONAL WEATHER ROUNDUP
NATIONAL WEATHER SERVICE PHOENIX AZ
800 AM MST THU AUG 16 2018

NOTE: FAIR INDICATES FEW OR NO CLOUDS BELOW 12,000 FEET WITH NO
SIGNIFICANT WEATHER AND/OR OBSTRUCTIONS TO VISIBILITY.


AZZ540-542>544-546-548-161600-
GREATER PHOENIX AREA
  
CITY           SKY/WX    TMP DP  RH WIND       PRES   REMARKS
PHOENIX        PTSUNNY   86  69  56 NW8       30.00R                  
LUKE AFB       MOSUNNY   88  69  53 SW15      29.99R                  
DEER VALLEY    MOSUNNY   84  69  60 SW6       30.02R                  
SCOTTSDALE     PTSUNNY   84  68  58 CALM      30.04R                  
MESA-FALCON    MOSUNNY   84  70  61 SE12      30.04R                  
MESA-GATEWAY   PTSUNNY   82  70  65 E8        30.05R                  
CHANDLER       PTSUNNY   84  70  61 SE7       30.02R                  
$$


SKY/WX - Weather  TMP - Temperature  DP - Dewpoint  RH - Relative Humidity
WIND - Wind Direction/Speed PRES - Barometric Pressure